Lid_Strength_Index
9 8 7 7 6 6 6 6 6 5 4 3 2 1 0 1 1 1 1 3 4 5
9 9 8 8 8 7 6 6 6 6 6 5 4 2 1 1 1 1 1 1 1 4
10 9 7 7 7 7 8 7 6 6 7 7 6 4 2 1 1 1 1 1 2 3
11 10 9 9 8 8 8 8 8 7 8 8 8 6 4 2 1 2 1 1 1 3
11 10 10 9 9 8 9 9 9 8 8 8 8 7 5 3 1 2 2 2 2 3
11 10 10 10 9 9 9 9 9 9 9 8 8 8 6 5 3 2 2 2 2 3
10 10 10 9 9 9 9 9 9 9 9 9 8 8 8 6 6 2 2 1 2 3
9 9 10 10 10 9 9 9 9 9 9 9 9 8 8 6 6 3 2 2 3 3
11 10 10 10 10 9 9 9 9 9 9 9 8 8 8 7 7 4 3 5 6 5
10 11 11 10 9 10 9 10 10 9 9 9 9 8 8 8 5 4 5 7 8 9
11 11 11 11 11 10 10 10 10 10 9 9 8 8 8 9 7 7 8 8 8 8
11 11 11 11 11 11 11 11 11 11 10 10 9 8 9 9 10 11 11 10 10 10
11 11 12 11 12 12 12 12 11 12 11 11 9 9 9 10 11 12 12 12 11 11
12 11 11 11 11 12 12 12 12 12 12 12 11 10 9 10 11 12 12 12 12 11